Time,TemperatureF,DewpointF,PressureIn,WindDirection,WindDirectionDegrees,WindSpeedMPH,WindSpeedGustMPH,Humidity,HourlyPrecipIn,Conditions,Clouds,dailyrainin,SoftwareType,DateUTC
2013-12-09 00:00:00,-6.4,-11.0,30.88,NNW,342,0.0,0.0,81,0.00,,,0.00,weatherlink.com 1.10,2013-12-09 08:00:00,
2013-12-09 00:15:00,-5.7,-10.0,30.87,NNW,342,0.0,0.0,82,0.00,,,0.00,weatherlink.com 1.10,2013-12-09 08:15:00,
2013-12-09 00:30:00,-4.7,-9.0,30.88,NNW,341,0.0,0.0,83,0.00,,,0.00,weatherlink.com 1.10,2013-12-09 08:30:00,
2013-12-09 00:45:00,-3.8,-8.0,30.87,NNW,341,0.0,0.0,83,0.00,,,0.00,weatherlink.com 1.10,2013-12-09 08:45:00,
2013-12-09 01:01:00,-3.1,-7.0,30.87,NNW,341,0.0,0.0,83,0.00,,,0.00,weatherlink.com 1.10,2013-12-09 09:01:00,
2013-12-09 01:16:00,-3.0,-7.0,30.86,NNW,341,0.0,0.0,82,0.00,,,0.00,weatherlink.com 1.10,2013-12-09 09:16:00,
2013-12-09 01:31:00,-3.1,-7.0,30.86,NNW,342,0.0,0.0,82,0.00,,,0.00,weatherlink.com 1.10,2013-12-09 09:31:00,
2013-12-09 01:46:00,-3.7,-8.0,30.86,NNW,342,0.0,0.0,81,0.00,,,0.00,weatherlink.com 1.10,2013-12-09 09:46:00,
2013-12-09 02:01:00,-4.0,-8.0,30.86,NNW,342,0.0,0.0,81,0.00,,,0.00,weatherlink.com 1.10,2013-12-09 10:01:00,
2013-12-09 02:16:00,-4.1,-9.0,30.87,NNW,342,0.0,0.0,81,0.00,,,0.00,weatherlink.com 1.10,2013-12-09 10:16:00,
2013-12-09 02:31:00,-4.2,-9.0,30.86,NNW,341,0.0,0.0,81,0.00,,,0.00,weatherlink.com 1.10,2013-12-09 10:31:00,
2013-12-09 02:46:00,-4.2,-9.0,30.86,NNW,341,0.0,0.0,81,0.00,,,0.00,weatherlink.com 1.10,2013-12-09 10:46:00,
2013-12-09 03:01:00,-4.0,-8.0,30.86,NNW,341,0.0,0.0,82,0.00,,,0.00,weatherlink.com 1.10,2013-12-09 11:01:00,
2013-12-09 03:16:00,-3.7,-8.0,30.85,NNW,341,0.0,0.0,82,0.00,,,0.00,weatherlink.com 1.10,2013-12-09 11:16:00,
2013-12-09 03:31:00,-3.1,-7.0,30.85,NNW,341,0.0,0.0,83,0.00,,,0.00,weatherlink.com 1.10,2013-12-09 11:31:00,
2013-12-09 03:46:00,-2.1,-6.0,30.84,NNW,342,0.0,0.0,84,0.00,,,0.00,weatherlink.com 1.10,2013-12-09 11:46:00,
2013-12-09 04:01:00,-0.8,-5.0,30.84,NNW,342,0.0,0.0,84,0.00,,,0.00,weatherlink.com 1.10,2013-12-09 12:01:00,
2013-12-09 04:17:00,-0.1,-4.0,30.83,North,360,0.0,0.0,84,0.00,,,0.00,weatherlink.com 1.10,2013-12-09 12:17:00,
2013-12-09 04:32:00,0.3,-4.0,30.83,North,360,0.0,0.0,83,0.00,,,0.00,weatherlink.com 1.10,2013-12-09 12:32:00,
2013-12-09 04:47:00,0.7,-4.0,30.82,North,350,2.0,2.0,82,0.00,,,0.00,weatherlink.com 1.10,2013-12-09 12:47:00,
2013-12-09 05:02:00,1.3,-3.0,30.83,NNW,340,2.0,4.0,82,0.00,,,0.00,weatherlink.com 1.10,2013-12-09 13:02:00,
2013-12-09 05:17:00,2.0,-2.0,30.83,NNW,337,3.0,4.0,82,0.00,,,0.00,weatherlink.com 1.10,2013-12-09 13:17:00,
2013-12-09 05:32:00,3.2,-1.0,30.84,NW,317,3.0,4.0,83,0.00,,,0.00,weatherlink.com 1.10,2013-12-09 13:32:00,
2013-12-09 05:47:00,3.7,-1.0,30.84,NNW,327,0.0,3.0,82,0.00,,,0.00,weatherlink.com 1.10,2013-12-09 13:47:00,
2013-12-09 06:02:00,4.1,0.0,30.84,NNW,327,0.0,0.0,82,0.00,,,0.00,weatherlink.com 1.10,2013-12-09 14:02:00,
2013-12-09 06:17:00,4.4,0.0,30.83,WNW,285,0.0,0.0,82,0.00,,,0.00,weatherlink.com 1.10,2013-12-09 14:17:00,
2013-12-09 06:32:00,5.2,0.0,30.83,SSE,161,0.0,3.0,80,0.00,,,0.00,weatherlink.com 1.10,2013-12-09 14:32:00,
2013-12-09 06:47:00,5.6,0.0,30.84,SSE,160,0.0,0.0,79,0.00,,,0.00,weatherlink.com 1.10,2013-12-09 14:47:00,
2013-12-09 07:02:00,5.5,0.0,30.84,SSE,160,0.0,0.0,79,0.00,,,0.00,weatherlink.com 1.10,2013-12-09 15:02:00,
2013-12-09 07:17:00,5.2,0.0,30.83,SSE,161,0.0,0.0,78,0.00,,,0.00,weatherlink.com 1.10,2013-12-09 15:17:00,
2013-12-09 07:32:00,5.1,0.0,30.83,SSE,164,0.0,0.0,78,0.00,,,0.00,weatherlink.com 1.10,2013-12-09 15:32:00,
2013-12-09 07:48:00,7.4,2.0,30.83,SSE,149,2.0,8.0,77,0.00,,,0.00,weatherlink.com 1.10,2013-12-09 15:48:00,
2013-12-09 08:03:00,9.5,2.0,30.82,SE,146,0.0,3.0,72,0.00,,,0.00,weatherlink.com 1.10,2013-12-09 16:03:00,
2013-12-09 08:18:00,9.8,2.0,30.84,SE,134,3.0,7.0,70,0.00,,,0.00,weatherlink.com 1.10,2013-12-09 16:18:00,
2013-12-09 08:33:00,10.2,2.0,30.83,SE,146,3.0,6.0,69,0.00,,,0.00,weatherlink.com 1.10,2013-12-09 16:33:00,
2013-12-09 08:48:00,10.6,2.0,30.83,SSE,154,5.0,13.0,69,0.00,,,0.00,weatherlink.com 1.10,2013-12-09 16:48:00,
2013-12-09 09:03:00,11.5,4.0,30.82,SSE,153,2.0,12.0,70,0.00,,,0.00,weatherlink.com 1.10,2013-12-09 17:03:00,
2013-12-09 09:18:00,12.2,4.0,30.82,SE,144,2.0,5.0,70,0.00,,,0.00,weatherlink.com 1.10,2013-12-09 17:18:00,
2013-12-09 09:33:00,12.4,4.0,30.82,SE,129,3.0,13.0,69,0.00,,,0.00,weatherlink.com 1.10,2013-12-09 17:33:00,
2013-12-09 09:48:00,12.1,3.0,30.81,SE,136,4.0,16.0,68,0.00,,,0.00,weatherlink.com 1.10,2013-12-09 17:48:00,
2013-12-09 10:03:00,12.7,3.0,30.81,South,184,5.0,12.0,66,0.00,,,0.00,weatherlink.com 1.10,2013-12-09 18:03:00,
2013-12-09 10:18:00,13.8,5.0,30.82,SSE,162,3.0,10.0,67,0.00,,,0.00,weatherlink.com 1.10,2013-12-09 18:18:00,
2013-12-09 10:33:00,14.8,5.0,30.81,SSE,161,6.0,17.0,64,0.00,,,0.00,weatherlink.com 1.10,2013-12-09 18:33:00,
2013-12-09 10:48:00,15.2,5.0,30.81,SE,146,1.0,14.0,65,0.00,,,0.00,weatherlink.com 1.10,2013-12-09 18:48:00,
2013-12-09 11:03:00,15.8,6.0,30.81,SSE,150,3.0,14.0,66,0.00,,,0.00,weatherlink.com 1.10,2013-12-09 19:03:00,
2013-12-09 11:19:00,15.7,7.0,30.80,SE,134,6.0,14.0,67,0.00,,,0.00,weatherlink.com 1.10,2013-12-09 19:19:00,
2013-12-09 11:34:00,15.9,6.0,30.80,SE,141,3.0,15.0,66,0.00,,,0.00,weatherlink.com 1.10,2013-12-09 19:34:00,
2013-12-09 11:49:00,16.9,7.0,30.79,SSE,150,11.0,13.0,65,0.00,,,0.00,weatherlink.com 1.10,2013-12-09 19:49:00,
2013-12-09 12:04:00,17.4,7.0,30.78,South,176,6.0,17.0,65,0.00,,,0.00,weatherlink.com 1.10,2013-12-09 20:04:00,
2013-12-09 12:19:00,17.9,8.0,30.78,SSE,167,8.0,16.0,66,0.00,,,0.00,weatherlink.com 1.10,2013-12-09 20:19:00,
2013-12-09 12:34:00,18.5,8.0,30.77,SSE,157,7.0,16.0,64,0.00,,,0.00,weatherlink.com 1.10,2013-12-09 20:34:00,
2013-12-09 12:49:00,18.5,8.0,30.77,SE,139,6.0,13.0,63,0.00,,,0.00,weatherlink.com 1.10,2013-12-09 20:49:00,
2013-12-09 13:04:00,19.0,8.0,30.76,SE,136,8.0,13.0,62,0.00,,,0.00,weatherlink.com 1.10,2013-12-09 21:04:00,
2013-12-09 13:19:00,19.3,7.0,30.75,South,171,5.0,15.0,60,0.00,,,0.00,weatherlink.com 1.10,2013-12-09 21:19:00,
2013-12-09 13:34:00,18.5,7.0,30.75,SSE,164,4.0,17.0,62,0.00,,,0.00,weatherlink.com 1.10,2013-12-09 21:34:00,
2013-12-09 13:49:00,17.9,8.0,30.75,South,188,9.0,16.0,64,0.00,,,0.00,weatherlink.com 1.10,2013-12-09 21:49:00,
2013-12-09 14:04:00,18.3,8.0,30.75,SSE,161,3.0,12.0,64,0.00,,,0.00,weatherlink.com 1.10,2013-12-09 22:04:00,
2013-12-09 14:19:00,18.2,7.0,30.75,SSE,148,4.0,16.0,62,0.00,,,0.00,weatherlink.com 1.10,2013-12-09 22:19:00,
2013-12-09 14:35:00,18.4,7.0,30.73,South,173,7.0,15.0,62,0.00,,,0.00,weatherlink.com 1.10,2013-12-09 22:35:00,
2013-12-09 14:50:00,18.5,7.0,30.74,SE,138,6.0,17.0,62,0.00,,,0.00,weatherlink.com 1.10,2013-12-09 22:50:00,
2013-12-09 15:05:00,18.5,7.0,30.74,SSE,153,7.0,11.0,62,0.00,,,0.00,weatherlink.com 1.10,2013-12-09 23:05:00,
2013-12-09 15:20:00,18.5,7.0,30.74,South,188,7.0,15.0,61,0.00,,,0.00,weatherlink.com 1.10,2013-12-09 23:20:00,
2013-12-09 15:35:00,18.3,7.0,30.74,SE,136,4.0,15.0,62,0.00,,,0.00,weatherlink.com 1.10,2013-12-09 23:35:00,
2013-12-09 16:05:00,17.8,7.0,30.74,SE,145,9.0,14.0,64,0.00,,,0.00,weatherlink.com 1.10,2013-12-10 00:05:00,
2013-12-09 16:20:00,17.5,8.0,30.74,SE,146,5.0,12.0,65,0.00,,,0.00,weatherlink.com 1.10,2013-12-10 00:20:00,
2013-12-09 16:35:00,17.2,7.0,30.74,SSE,148,3.0,14.0,64,0.00,,,0.00,weatherlink.com 1.10,2013-12-10 00:35:00,
2013-12-09 16:50:00,16.8,6.0,30.74,SE,136,7.0,14.0,63,0.00,,,0.00,weatherlink.com 1.10,2013-12-10 00:50:00,
2013-12-09 17:05:00,16.6,7.0,30.74,SE,133,4.0,14.0,65,0.00,,,0.00,weatherlink.com 1.10,2013-12-10 01:05:00,
2013-12-09 17:20:00,16.3,7.0,30.74,SE,136,6.0,13.0,67,0.00,,,0.00,weatherlink.com 1.10,2013-12-10 01:20:00,
2013-12-09 17:35:00,16.2,7.0,30.74,SSE,151,6.0,13.0,66,0.00,,,0.00,weatherlink.com 1.10,2013-12-10 01:35:00,
2013-12-09 17:51:00,15.8,6.0,30.74,SE,132,4.0,14.0,66,0.00,,,0.00,weatherlink.com 1.10,2013-12-10 01:51:00,
2013-12-09 18:06:00,15.9,6.0,30.74,SSE,160,4.0,16.0,66,0.00,,,0.00,weatherlink.com 1.10,2013-12-10 02:06:00,
2013-12-09 18:21:00,16.0,7.0,30.74,South,173,9.0,15.0,67,0.00,,,0.00,weatherlink.com 1.10,2013-12-10 02:21:00,
2013-12-09 18:36:00,16.0,6.0,30.73,SSE,164,8.0,13.0,66,0.00,,,0.00,weatherlink.com 1.10,2013-12-10 02:36:00,
2013-12-09 18:51:00,16.0,6.0,30.74,SE,130,2.0,13.0,66,0.00,,,0.00,weatherlink.com 1.10,2013-12-10 02:51:00,
2013-12-09 19:06:00,16.1,6.0,30.73,SE,132,4.0,11.0,64,0.00,,,0.00,weatherlink.com 1.10,2013-12-10 03:06:00,
2013-12-09 19:21:00,16.0,6.0,30.73,SSE,161,5.0,10.0,64,0.00,,,0.00,weatherlink.com 1.10,2013-12-10 03:21:00,
2013-12-09 19:36:00,16.2,6.0,30.72,SSE,159,7.0,19.0,63,0.00,,,0.00,weatherlink.com 1.10,2013-12-10 03:36:00,
2013-12-09 19:51:00,16.4,5.0,30.71,SSE,161,6.0,15.0,61,0.00,,,0.00,weatherlink.com 1.10,2013-12-10 03:51:00,
2013-12-09 20:06:00,16.4,5.0,30.70,SSE,164,5.0,17.0,60,0.00,,,0.00,weatherlink.com 1.10,2013-12-10 04:06:00,
2013-12-09 20:21:00,16.1,5.0,30.71,SE,127,3.0,10.0,62,0.00,,,0.00,weatherlink.com 1.10,2013-12-10 04:21:00,
2013-12-09 20:36:00,16.2,5.0,30.71,SE,142,10.0,12.0,62,0.00,,,0.00,weatherlink.com 1.10,2013-12-10 04:36:00,
2013-12-09 20:51:00,16.7,5.0,30.71,SSE,148,5.0,13.0,60,0.00,,,0.00,weatherlink.com 1.10,2013-12-10 04:51:00,
2013-12-09 21:07:00,16.5,5.0,30.70,SSW,196,5.0,13.0,60,0.00,,,0.00,weatherlink.com 1.10,2013-12-10 05:07:00,
2013-12-09 21:22:00,16.2,4.0,30.70,SE,134,6.0,11.0,60,0.00,,,0.00,weatherlink.com 1.10,2013-12-10 05:22:00,
2013-12-09 21:37:00,16.3,5.0,30.70,ESE,120,4.0,13.0,61,0.00,,,0.00,weatherlink.com 1.10,2013-12-10 05:37:00,
2013-12-09 21:52:00,16.5,5.0,30.68,SSE,158,3.0,13.0,60,0.00,,,0.00,weatherlink.com 1.10,2013-12-10 05:52:00,
2013-12-09 22:07:00,16.5,5.0,30.67,SE,126,2.0,11.0,60,0.00,,,0.00,weatherlink.com 1.10,2013-12-10 06:07:00,
2013-12-09 22:22:00,16.6,5.0,30.68,SSE,154,4.0,15.0,60,0.00,,,0.00,weatherlink.com 1.10,2013-12-10 06:22:00,
2013-12-09 22:37:00,16.9,5.0,30.66,South,169,7.0,16.0,60,0.00,,,0.00,weatherlink.com 1.10,2013-12-10 06:37:00,
2013-12-09 22:52:00,17.0,5.0,30.67,SSE,153,6.0,19.0,59,0.00,,,0.00,weatherlink.com 1.10,2013-12-10 06:52:00,
2013-12-09 23:07:00,16.7,5.0,30.67,SE,126,3.0,12.0,59,0.00,,,0.00,weatherlink.com 1.10,2013-12-10 07:07:00,
2013-12-09 23:22:00,16.4,5.0,30.66,SSE,155,8.0,13.0,60,0.00,,,0.00,weatherlink.com 1.10,2013-12-10 07:22:00,
2013-12-09 23:37:00,16.1,4.0,30.66,ESE,117,4.0,17.0,60,0.00,,,0.00,weatherlink.com 1.10,2013-12-10 07:37:00,
2013-12-09 23:52:00,15.9,4.0,30.66,SE,141,2.0,14.0,60,0.00,,,0.00,weatherlink.com 1.10,2013-12-10 07:52:00,